Weather History for Alicante, Spain

Change the Weather History Date:

Wednesday, October 24, 2012

  Actual Average Record
Temperature  
Mean Temperature 64 °F -  
Max Temperature 72 °F 67 °F 82 °F (2004)
Min Temperature 56 °F 51 °F 48 °F (1998)
Degree Days  
Heating Degree Days 1    
Growing Degree Days 14 (Base 50)    
Moisture  
Dew Point 59 °F    
Average Humidity 86    
Maximum Humidity 100    
Minimum Humidity 60    
Precipitation  
Precipitation 0.00 in - - ()
Sea Level Pressure  
Sea Level Pressure 30.00 in    
Wind  
Wind Speed 2 mph ()    
Max Wind Speed 8 mph    
Max Gust Speed -    
Visibility 7.2 miles    
Events Rain    
Averages and records for this station are not official NWS values.
T = Trace of Precipitation, MM = Missing Value Source: Averaged Metar Reports

Daily Weather History Graph

Daily Weather History Graph

Search for Another Location

Airport:

Trip Planner

Search our weather history database for the weather conditions in past years. The results will help you decide how hot, cold, wet, or windy it might be!

Date:

Astronomy

Oct. 24, 2012 Rise Set
Actual Time 8:20 AM CEST 7:11 PM CEST
Civil Twilight 7:53 AM CEST 7:38 PM CEST
Nautical Twilight 7:22 AM CEST 8:09 PM CEST
Astronomical Twilight 6:51 AM CEST 8:40 PM CEST
Moon 4:16 PM CEST (10/24) 3:04 AM CEST (10/24)
Length of Visible Light 11h 45m
Length of Day
10h 51m
Waxing Gibbous, 73% of the Moon is Illuminated
Oct 24
Waxing Gibbous
Oct 29
Full
Nov 7
Last Quarter
Nov 13
New
Nov 20
First Quarter

Hourly Weather History & Observations

Time (CEST) Temp. Dew Point Humidity Pressure Visibility Wind Dir Wind Speed Gust Speed Precip Events Conditions
12:00 AM 62.6 °F 59.0 °F 88% 30.06 in - Variable 1.2 mph - N/A   Clear
12:30 AM 60.8 °F 59.0 °F 94% 30.06 in - West 3.5 mph - N/A   Clear
1:00 AM 59.0 °F 59.0 °F 100% 30.06 in - WNW 3.5 mph - N/A   Clear
1:30 AM 59.0 °F 57.2 °F 94% 30.06 in - Variable 2.3 mph - N/A   Clear
2:00 AM 59 °F 55 °F 84% 30.07 in 9 mi WNW 2.3 mph - -   Clear
2:00 AM 59.0 °F 59.0 °F 100% 30.06 in - Variable 2.3 mph - N/A   Clear
2:30 AM 59.0 °F 59.0 °F 100% 30.04 in - Variable 2.3 mph - N/A   Clear
3:00 AM 59.0 °F 59.0 °F 100% 30.04 in - Variable 1.2 mph - N/A   Clear
3:30 AM 59.0 °F 59.0 °F 100% 30.04 in - Variable 2.3 mph - N/A   Clear
4:00 AM 57.2 °F 57.2 °F 100% 30.04 in - Variable 2.3 mph - N/A   Clear
4:30 AM 57.2 °F 57.2 °F 100% 30.01 in - Variable 2.3 mph - N/A   Clear
5:00 AM 57.2 °F 57.2 °F 100% 30.01 in - WNW 3.5 mph - N/A   Clear
5:30 AM 57.2 °F 57.2 °F 100% 30.01 in - Calm Calm - N/A   Clear
6:00 AM 57.2 °F 57.2 °F 100% 30.01 in - Variable 2.3 mph - N/A   Clear
6:30 AM 57.2 °F 57.2 °F 100% 30.01 in - Variable 1.2 mph - N/A   Clear
7:00 AM 57.2 °F 57.2 °F 100% 30.01 in - West 3.5 mph - N/A   Clear
7:30 AM 57.2 °F 55.4 °F 94% 30.01 in - Variable 1.2 mph - N/A   Clear
8:00 AM 56 °F 53 °F 86% 30.02 in 7 mi SW 4.6 mph - -   Clear
8:00 AM 57.2 °F 55.4 °F 94% 30.01 in - SW 3.5 mph - N/A   Clear
8:30 AM 57.2 °F 55.4 °F 94% 30.01 in - Variable 2.3 mph - N/A   Clear
9:00 AM 59.0 °F 55.4 °F 88% 30.01 in - Calm Calm - N/A   Clear
9:30 AM 60.8 °F 59.0 °F 94% 30.04 in 5.6 mi Calm Calm - N/A   Unknown
10:00 AM 64.4 °F 59.0 °F 83% 30.04 in - Calm Calm - N/A   Clear
10:30 AM 66.2 °F 59.0 °F 78% 30.04 in - Variable 1.2 mph - N/A   Clear
11:00 AM 68.0 °F 59.0 °F 73% 30.04 in - Variable 1.2 mph - N/A   Clear
11:30 AM 69.8 °F 59.0 °F 68% 30.04 in - Calm Calm - N/A   Clear
12:00 PM 69.8 °F 60.8 °F 73% 30.01 in - Variable 2.3 mph - N/A   Clear
12:30 PM 71.6 °F 57.2 °F 60% 30.01 in - South 3.5 mph - N/A   Clear
1:00 PM 71.6 °F 57.2 °F 60% 30.01 in - South 3.5 mph - N/A   Clear
1:30 PM 71.6 °F 57.2 °F 60% 30.01 in - Variable 2.3 mph - N/A   Clear
2:00 PM 71.6 °F 57.2 °F 60% 30.01 in - South 3.5 mph - N/A   Clear
2:30 PM 71.6 °F 59.0 °F 64% 29.98 in - South 3.5 mph - N/A   Clear
3:00 PM 71.6 °F 60.8 °F 69% 29.98 in - South 4.6 mph - N/A   Clear
3:30 PM 71.6 °F 59.0 °F 64% 29.98 in - South 4.6 mph - N/A   Clear
4:00 PM 71.6 °F 60.8 °F 69% 29.98 in - Variable 2.3 mph - N/A   Clear
4:30 PM 71.6 °F 60.8 °F 69% 29.95 in 6.2 mi Variable 1.2 mph - N/A   Partly Cloudy
5:00 PM 69.8 °F 60.8 °F 73% 29.92 in - ESE 8.1 mph - N/A   Clear
5:30 PM 68.0 °F 62.6 °F 83% 29.95 in - ESE 5.8 mph - N/A   Clear
6:00 PM 68.0 °F 64.4 °F 88% 29.95 in - ESE 3.5 mph - N/A   Clear
6:30 PM 68.0 °F 64.4 °F 88% 29.95 in - Variable 1.2 mph - N/A   Clear
7:00 PM 68.0 °F 64.4 °F 88% 29.95 in - Calm Calm - N/A   Clear
8:00 PM 67 °F 62 °F 78% 29.96 in 11 mi Calm Calm - - Rain Light Drizzle
8:00 PM 66.2 °F 64.4 °F 94% 29.95 in 6.2 mi Calm Calm - N/A   Light Drizzle
8:30 PM 68.0 °F 64.4 °F 88% 29.95 in 6.2 mi Calm Calm - N/A   Partly Cloudy
9:00 PM 66.2 °F 64.4 °F 94% 29.95 in 6.2 mi Variable 2.3 mph - N/A   Partly Cloudy
9:30 PM 66.2 °F 62.6 °F 88% 29.95 in - Variable 1.2 mph - N/A   Clear
10:00 PM 64.4 °F 62.6 °F 94% 29.92 in - Variable 2.3 mph - N/A   Clear
10:30 PM 66.2 °F 62.6 °F 88% 29.95 in - Variable 1.2 mph - N/A   Clear
11:00 PM 66.2 °F 62.6 °F 88% 29.95 in - Calm Calm - N/A   Clear
11:30 PM 66.2 °F 62.6 °F 88% 29.95 in - Variable 1.2 mph - N/A   Clear